Hourly Data Report for November 04, 2019

All times are specified in Local Standard Time (LST). Add 1 hour to adjust for Daylight Saving Time where and when it is observed.

SAINT JOHN A
NEW BRUNSWICK
Current Station Operator: NAVCAN

45°18'58.000" N
65°53'24.000" W
108.80 m
8104901
71609
YSJ

Download Data

Hourly Data (November 2019)
Hourly Data Report for November 4, 2019
TIME Temp Definition
°C
Dew Point Definition
°C
Rel Hum Definition
%
Wind Dir Definition
10's deg

Wind Spd Definition
km/h
Visibility Definition
km
Stn Press Definition
kPa
Hmdx Definition


Wind Chill Definition


Weather Definition


00:00 -1.9 -2.4 97 36 1 24.1 100.50   -2 LegendNANA
01:00 -1.8 -2.2 97 36 1 24.1 100.56   -2 LegendNANA
02:00 -2.1 -2.4 98 5 3 24.1 100.60   -3 Mainly Clear
03:00 -1.5 -1.9 97 36 1 24.1 100.66   -2 LegendNANA
04:00 0.0 -0.6 96 36 1 24.1 100.73   0 LegendNANA
05:00 -0.8 -2.5 89 0 1 24.1 100.81   -1 Mainly Clear
06:00 -2.0 -2.5 97 36 3 24.1 100.89   -3 LegendNANA
07:00 -2.4 -2.6 98   0 24.1 100.97     LegendNANA
08:00 -1.2 -1.6 98 0 1 24.1 101.07   -2 Mainly Clear
09:00 3.9 0.6 79 27 9 24.1 101.14     LegendNANA
10:00 4.9 LegendMM LegendMM 27 13 24.1 101.18     LegendNANA
11:00 6.3 -1.7 56 27 9 24.1 101.22     Mostly Cloudy
12:00 7.3 -2.1 51 27 9 24.1 101.20     LegendNANA
13:00 7.8 -2.5 48 23 15 24.1 101.20     LegendNANA
14:00 8.5 -5.0 38 27 18 24.1 101.20     Mostly Cloudy
15:00 8.9 -2.0 46 21 19 24.1 101.22     LegendNANA
16:00 7.0 -0.8 58 22 19 24.1 101.30     LegendNANA
17:00 6.3 -1.0 60 22 16 24.1 101.31     Mainly Clear
18:00 3.2 -0.9 75 23 9 24.1 101.44     LegendNANA
19:00 2.1 -0.2 84 18 4 24.1 101.45     LegendNANA
20:00 0.8 -0.7 90 36 2 24.1 101.44     Mainly Clear
21:00 -0.4 -1.2 94 36 3 24.1 101.48   -1 LegendNANA
22:00 -1.3 -2.1 94 36 1 24.1 101.51   -2 LegendNANA
23:00 -0.2 -1.0 94 36 2 24.1 101.50   -1 Mostly Cloudy

Notes on Data Quality.

Legend

  • E = Estimated
  • M = Missing
  • NA = Not Available
Date modified: